• In Portugal
  • List of Countries
  • For 7 days
  • Water Temperature
  • Satellite Maps
  • Weather Map
  • Weather Widgets
  • user-avatar
    Login

    Hourly Weather Jalalabad

    Today, 20 November, Monday

    Time Temperature Precipitation Wind Pressure Humidity
    00:00 +13°C° 0 mm 2 mps 712 mmHg 26%
    01:00 +13°C° 0 mm 2 mps 712 mmHg 26%
    02:00 +13°C° 0 mm 2 mps 712 mmHg 25%
    03:00 +12°C° 0 mm 2 mps 712 mmHg 25%
    04:00 +12°C° 0 mm 2 mps 712 mmHg 25%
    05:00 +12°C° 0 mm 2 mps 712 mmHg 25%
    06:00 +12°C° 0 mm 2 mps 712 mmHg 25%
    07:00 +13°C° 0 mm 2 mps 712 mmHg 24%
    08:00 +13°C° 0 mm 2 mps 712 mmHg 24%
    09:00 +15°C° 0 mm 2 mps 713 mmHg 21%
    10:00 +16°C° 0 mm 2 mps 713 mmHg 17%
    11:00 +19°C° 0 mm 1 mps 713 mmHg 14%
    12:00 +20°C° 0 mm 1 mps 712 mmHg 14%
    13:00 +20°C° 0 mm 1 mps 712 mmHg 14%
    14:00 +21°C° 0 mm 1 mps 712 mmHg 14%
    15:00 +19°C° 0 mm 1 mps 712 mmHg 17%
    16:00 +18°C° 0 mm 1 mps 711 mmHg 19%
    17:00 +16°C° 0 mm 1 mps 711 mmHg 23%
    18:00 +15°C° 0 mm 1 mps 711 mmHg 23%
    19:00 +14°C° 0 mm 1 mps 712 mmHg 23%
    20:00 +14°C° 0 mm 1 mps 712 mmHg 24%
    21:00 +13°C° 0 mm 1 mps 712 mmHg 23%
    22:00 +13°C° 0 mm 1 mps 712 mmHg 23%
    23:00 +13°C° 0 mm 1 mps 712 mmHg 23%

    Tomorrow, 21 November, Tuesday

    Time Temperature Precipitation Wind Pressure Humidity
    00:00 +12°C° 0 mm 1 mps 712 mmHg 22%
    01:00 +12°C° 0 mm 1 mps 711 mmHg 22%
    02:00 +12°C° 0 mm 1 mps 711 mmHg 21%
    03:00 +11°C° 0 mm 1 mps 711 mmHg 20%
    04:00 +10°C° 0 mm 2 mps 711 mmHg 19%
    05:00 +10°C° 0 mm 2 mps 711 mmHg 19%
    06:00 +10°C° 0 mm 2 mps 711 mmHg 18%
    07:00 +12°C° 0 mm 2 mps 711 mmHg 18%
    08:00 +12°C° 0 mm 2 mps 711 mmHg 17%
    09:00 +14°C° 0 mm 2 mps 711 mmHg 15%
    10:00 +16°C° 0 mm 2 mps 711 mmHg 12%
    11:00 +19°C° 0 mm 1 mps 711 mmHg 10%
    12:00 +20°C° 0 mm 1 mps 711 mmHg 10%
    13:00 +20°C° 0 mm 1 mps 710 mmHg 10%
    14:00 +21°C° 0 mm 1 mps 710 mmHg 9%
    15:00 +19°C° 0 mm 1 mps 710 mmHg 12%
    16:00 +18°C° 0 mm 1 mps 709 mmHg 14%
    17:00 +16°C° 0 mm 1 mps 709 mmHg 17%
    18:00 +15°C° 0 mm 1 mps 710 mmHg 17%
    19:00 +14°C° 0 mm 1 mps 710 mmHg 16%
    20:00 +13°C° 0 mm 1 mps 710 mmHg 16%
    21:00 +13°C° 0 mm 1 mps 710 mmHg 16%
    22:00 +13°C° 0 mm 1 mps 710 mmHg 15%
    23:00 +12°C° 0 mm 1 mps 710 mmHg 15%

    Day after tomorrow, 22 November, Wednesday

    Time Temperature Precipitation Wind Pressure Humidity
    00:00 +12°C° 0 mm 1 mps 710 mmHg 14%
    01:00 +12°C° 0 mm 1 mps 709 mmHg 14%
    02:00 +12°C° 0 mm 1 mps 709 mmHg 14%
    03:00 +11°C° 0 mm 1 mps 709 mmHg 14%
    04:00 +11°C° 0 mm 1 mps 709 mmHg 13%
    05:00 +11°C° 0 mm 1 mps 709 mmHg 13%
    06:00 +11°C° 0 mm 1 mps 709 mmHg 13%
    07:00 +12°C° 0 mm 1 mps 709 mmHg 13%
    08:00 +13°C° 0 mm 1 mps 710 mmHg 14%
    09:00 +15°C° 0 mm 1 mps 710 mmHg 12%
    10:00 +18°C° 0 mm 1 mps 710 mmHg 10%
    11:00 +20°C° 0 mm 1 mps 711 mmHg 8%
    12:00 +21°C° 0 mm 1 mps 710 mmHg 8%
    13:00 +21°C° 0 mm 1 mps 710 mmHg 9%
    14:00 +22°C° 0 mm 1 mps 709 mmHg 9%
    15:00 +20°C° 0 mm 1 mps 709 mmHg 12%
    16:00 +19°C° 0 mm 1 mps 709 mmHg 15%
    17:00 +16°C° 0 mm 1 mps 709 mmHg 18%
    18:00 +15°C° 0 mm 1 mps 709 mmHg 17%
    19:00 +15°C° 0 mm 1 mps 709 mmHg 17%
    20:00 +14°C° 0 mm 1 mps 709 mmHg 16%
    21:00 +14°C° 0 mm 1 mps 709 mmHg 16%
    22:00 +13°C° 0 mm 1 mps 709 mmHg 16%
    23:00 +13°C° 0 mm 1 mps 709 mmHg 16%

    23 November, Thursday

    Time Temperature Precipitation Wind Pressure Humidity
    00:00 +13°C° 0 mm 1 mps 709 mmHg 16%
    01:00 +13°C° 0 mm 1 mps 709 mmHg 16%
    02:00 +13°C° 0 mm 1 mps 708 mmHg 16%
    03:00 +13°C° 0 mm 1 mps 708 mmHg 16%
    04:00 +13°C° 0 mm 2 mps 708 mmHg 16%
    05:00 +13°C° 0 mm 2 mps 707 mmHg 15%
    06:00 +13°C° 0 mm 2 mps 708 mmHg 15%
    07:00 +14°C° 0 mm 1 mps 708 mmHg 15%
    08:00 +14°C° 0 mm 1 mps 708 mmHg 15%
    09:00 +16°C° 0 mm 1 mps 708 mmHg 13%
    10:00 +19°C° 0 mm 1 mps 709 mmHg 10%
    11:00 +21°C° 0 mm 1 mps 709 mmHg 8%
    12:00 +22°C° 0 mm 1 mps 709 mmHg 8%
    13:00 +22°C° 0 mm 1 mps 708 mmHg 8%
    14:00 +23°C° 0 mm 1 mps 708 mmHg 8%
    15:00 +21°C° 0 mm 1 mps 708 mmHg 10%
    16:00 +20°C° 0 mm 1 mps 708 mmHg 13%
    17:00 +18°C° 0 mm 1 mps 708 mmHg 16%
    18:00 +18°C° 0 mm 1 mps 708 mmHg 15%
    19:00 +18°C° 0 mm 1 mps 709 mmHg 15%
    20:00 +16°C° 0 mm 1 mps 709 mmHg 14%
    21:00 +16°C° 0 mm 1 mps 709 mmHg 14%
    22:00 +15°C° 0 mm 1 mps 710 mmHg 14%
    23:00 +15°C° 0 mm 1 mps 710 mmHg 14%

    24 November, Friday

    Time Temperature Precipitation Wind Pressure Humidity
    00:00 +15°C° 0 mm 1 mps 709 mmHg 14%
    01:00 +14°C° 0 mm 1 mps 709 mmHg 14%
    02:00 +14°C° 0 mm 1 mps 709 mmHg 14%
    03:00 +13°C° 0 mm 2 mps 709 mmHg 14%
    04:00 +13°C° 0 mm 2 mps 709 mmHg 15%
    05:00 +13°C° 0 mm 2 mps 709 mmHg 15%
    06:00 +13°C° 0 mm 2 mps 709 mmHg 16%
    07:00 +14°C° 0 mm 2 mps 710 mmHg 17%
    08:00 +14°C° 0 mm 2 mps 710 mmHg 18%
    09:00 +16°C° 0 mm 1 mps 710 mmHg 16%
    10:00 +19°C° 0 mm 1 mps 711 mmHg 14%
    11:00 +21°C° 0 mm 1 mps 711 mmHg 12%
    12:00 +22°C° 0 mm 1 mps 711 mmHg 12%
    13:00 +22°C° 0 mm 1 mps 710 mmHg 12%
    14:00 +23°C° 0 mm 1 mps 710 mmHg 12%
    15:00 +21°C° 0 mm 1 mps 709 mmHg 15%
    16:00 +20°C° 0 mm 1 mps 709 mmHg 18%
    17:00 +17°C° 0 mm 0 mps 709 mmHg 21%
    18:00 +18°C° 0 mm 1 mps 710 mmHg 21%
    19:00 +18°C° 0 mm 1 mps 710 mmHg 21%
    20:00 +16°C° 0 mm 1 mps 710 mmHg 21%
    21:00 +16°C° 0 mm 1 mps 710 mmHg 21%
    22:00 +16°C° 0 mm 1 mps 710 mmHg 22%
    23:00 +16°C° 0 mm 1 mps 710 mmHg 22%

    25 November, Saturday

    Time Temperature Precipitation Wind Pressure Humidity
    00:00 +16°C° 0 mm 1 mps 710 mmHg 22%
    01:00 +15°C° 0 mm 1 mps 710 mmHg 22%
    02:00 +15°C° 0 mm 1 mps 710 mmHg 23%
    03:00 +15°C° 0 mm 2 mps 710 mmHg 23%
    04:00 +15°C° 0 mm 2 mps 709 mmHg 24%
    05:00 +15°C° 0 mm 2 mps 709 mmHg 25%
    06:00 +15°C° 0 mm 2 mps 710 mmHg 26%
    07:00 +15°C° 0 mm 2 mps 710 mmHg 27%
    08:00 +16°C° 0 mm 2 mps 710 mmHg 28%
    09:00 +17°C° 0 mm 2 mps 711 mmHg 25%
    10:00 +19°C° 0 mm 2 mps 711 mmHg 23%
    11:00 +22°C° 0 mm 1 mps 711 mmHg 20%
    12:00 +22°C° 0 mm 1 mps 710 mmHg 20%
    13:00 +23°C° 0 mm 1 mps 710 mmHg 19%
    14:00 +23°C° 0 mm 1 mps 709 mmHg 19%
    15:00 +22°C° 0 mm 1 mps 709 mmHg 22%
    16:00 +21°C° 0 mm 1 mps 709 mmHg 24%
    17:00 +18°C° 0 mm 0 mps 709 mmHg 27%
    18:00 +19°C° 0 mm 1 mps 710 mmHg 27%
    19:00 +19°C° 0 mm 1 mps 710 mmHg 28%
    20:00 +19°C° 0 mm 1 mps 711 mmHg 29%
    21:00 +18°C° 0.1 mm 1 mps 711 mmHg 30%
    22:00 +18°C° 0.1 mm 1 mps 711 mmHg 31%
    23:00 +18°C° 0.1 mm 1 mps 711 mmHg 32%
    Show more